Content
SEND FEEDBACK

Daily
Averages
Monthly
Summary
United Kingdom

WINCHESTER, ENGLAND


Home > Europe > United Kingdom > England
Elevation: 297 feet     Latitude: 51 09N     Longitude: 001 34W

WEATHER
 
SELECT A DAY
Number of Records: 62,957;   Date Range: 10/20/98 - 10/19/14
 
SHARE

PRINT THIS DATA

[ ← Previous Day ]
WEATHER ALMANAC - JUNE 21, 2013
[ Next Day → ]
[ °C ]   °F
Weather ElementAverageHighLow
Temperature60.8 °F69.8 °F (1:50 pm)55 °F (3:50 am)
Dewpoint53.7 °F55.4 °F (1:50 am)50 °F (3:50 pm)
Humidity78.4 %100 % (1:50 am)49 % (3:50 pm)
Barometer29.84 in29.91 in (9:50 pm)29.80 in (12:50 am)
Wind Speed8.2 mph15 mph (6:50 pm)
Weather ElementAverage
Visibility5.9 mi
Wind DirectionWSW (250 °)

Weather ElementTotal
Precipitation---
Heating Degree Days2.6 (Base 65)
Growing Degree Days12.4 (Base 50)
Averaged from 33 records on June 21, 2013
WEATHER CONDITIONS BREAKOUT
WIND DIRECTION BREAKOUT
WEATHER BY HOUR - JUNE 21, 2013
[ °C ]   °F
Local TimeTemperatureDewpointHumidityBarometerVisibilityWind DirectionWind SpeedGust SpeedPrecipitationEventsConditions
12:50 AM55.4 °F53.6 °F94 %29.80 in6.2 miSSW (210°)4.6 mphMostly Cloudy
1:50 AM55.4 °F55.4 °F100 %29.80 inSouth (190°)3.5 mphMostly Cloudy
2:50 AM55.4 °F55.4 °F100 %29.80 in1.1 miSouth (170°)5.8 mphOvercast
3:50 AM55.0 °F54.0 °F96 %29.81 in0.0 miSSW (210°)5.8 mphOvercast
3:50 AM55.4 °F53.6 °F94 %29.80 in0.5 miSSW (210°)5.8 mphOvercast
4:50 AM55.4 °F53.6 °F94 %29.80 in0.2 miWSW (240°)3.5 mph
5:50 AM55.4 °F55.4 °F100 %29.80 in0.3 miWSW (240°)3.5 mphFogFog
6:50 AM55.4 °F55.4 °F100 %29.80 in1.4 miWest (270°)9.2 mphOvercast
6:50 AM56.0 °F54.0 °F93 %29.81 in1.0 miWest (270°)9.2 mphFogLight Fog
7:24 AM55.4 °F53.6 °F94 %29.80 in4.3 miWest (280°)9.2 mphOvercast
7:50 AM57.2 °F55.4 °F94 %29.80 in4.3 miWest (280°)4.6 mphOvercast
8:16 AM57.2 °F53.6 °F88 %29.83 in5.0 miWest (280°)5.8 mphHaze
8:50 AM59.0 °F55.4 °F88 %29.83 in6.2 miWest (260°)5.8 mphOvercast
9:50 AM59.0 °F54.0 °F77 %29.85 in12.0 miWest (270°)9.2 mphOvercast
9:50 AM59.0 °F53.6 °F82 %29.83 in6.2 miWest (270°)9.2 mphOvercast
10:50 AM60.8 °F53.6 °F77 %29.83 in6.2 miWest (270°)9.2 mphMostly Cloudy
11:08 AM62.6 °F53.6 °F72 %29.83 in6.2 miWest (270°)9.2 mphMostly Cloudy
11:50 AM64.4 °F53.6 °F68 %29.83 in6.2 miWNW (290°)8.1 mphMostly Cloudy
12:50 PM67.0 °F54.0 °F55 %29.85 in16.0 miWSW (250°)8.1 mphMostly Cloudy
12:50 PM66.2 °F55.4 °F68 %29.86 in6.2 miWSW (250°)8.1 mphMostly Cloudy
1:50 PM69.8 °F53.6 °F56 %29.86 in6.2 miWSW (240°)9.2 mphMostly Cloudy
2:50 PM68.0 °F55.4 °F64 %29.86 in6.2 miWSW (240°)8.1 mphScattered Clouds
3:50 PM69.8 °F50.0 °F49 %29.86 in6.2 miWest (270°)9.2 mphMostly Cloudy
4:50 PM69.8 °F51.8 °F53 %29.86 in6.2 miWSW (250°)11.5 mphMostly Cloudy
5:50 PM68.0 °F53.6 °F60 %29.86 in6.2 miWest (270°)11.5 mphPartly Cloudy
6:50 PM68.0 °F53.6 °F60 %29.86 in6.2 miWest (270°)15.0 mphPartly Cloudy
6:50 PM67.0 °F54.0 °F54 %29.88 in16.0 miWest (270°)15.0 mphScattered Clouds
7:50 PM66.2 °F55.4 °F68 %29.89 in6.2 miWest (270°)11.5 mphScattered Clouds
8:50 PM62.6 °F51.8 °F68 %29.89 in6.2 miWest (270°)13.8 mphScattered Clouds
9:50 PM58.0 °F52.0 °F74 %29.91 in16.0 miWSW (250°)5.8 mphScattered Clouds
9:50 PM59.0 °F51.8 °F77 %29.89 in6.2 miWSW (250°)5.8 mphPartly Cloudy
10:50 PM57.2 °F51.8 °F82 %29.89 in6.2 miSSW (210°)6.9 mphScattered Clouds
11:50 PM55.4 °F51.8 °F88 %29.89 in6.2 miSSW (210°)9.2 mphMostly Cloudy
Hourly data recorded from EGVP, located miles away from Winchester, England







STORIES FROM OUR PARTNERS